Home   Weather   Churchill   Past weeks

Flag for Canada Past Weather in Churchill, Manitoba, Canada — Yesterday and Last 2 Weeks

Now
23 °F

Overcast.


Feels Like: 12 °F
Forecast: 18 / 36 °F
Wind: 12 mph from South

Location: Churchill

Current Time: Apr 30, 2017 at 4:20:25 am

Latest Report: Apr 30, 2017 at 4:00 am


Visibility: 15 mi

Pressure: 30.13 "Hg

Humidity: 80%

Dew Point: 18 °F

Location of ChurchillLocation

Past Weather in Churchill — Graph

°F

Churchill Temperature Yesterday

Maximum temperature yesterday: 21 °F (at 7:00 pm)
Minimum temperature yesterday: 7 °F (at 6:44 am)
Average temperature yesterday: 13 °F

High & Low Weather Summary for the Past Weeks

 TemperatureHumidityPressure
High36 °F (Apr 27, 2:00 pm)100% (Apr 19, 11:00 pm)30.50 "Hg (Apr 19, 11:00 pm)
Low-17 °F (Apr 24, 6:00 am)37% (Apr 27, 11:00 am)29.94 "Hg (Apr 17, 2:00 pm)
Average10 °F77%30.30 "Hg
* Reported Apr 15 3:00 am — Apr 30 3:00 am, Churchill, Weather by CustomWeather, © 2017

Note: Actual official high and low records may vary slightly from our data, if they occured in-between our weather recording intervals... More about our weather records

Advertising

Churchill Weather History for the Previous 24 Hours

Scroll right to see more
 ConditionsComfort  
Time TempWeatherWind HumidityBarometerVisibility
3:00 am
Sun, Apr 30
23 °FOvercast.12 mph80%30.14 "Hg15 mi
2:00 am21 °FOvercast.12 mph86%30.16 "Hg15 mi
1:00 am21 °FOvercast.12 mph80%30.18 "Hg15 mi
12:00 am21 °FOvercast.13 mph80%30.20 "Hg15 mi
11:00 pm
Sat, Apr 29
19 °FOvercast.9 mph79%30.22 "Hg15 mi
10:00 pm18 °FPassing clouds.13 mph86%30.25 "Hg15 mi
9:00 pm18 °FOvercast.10 mph73%30.27 "Hg15 mi
8:00 pm19 °FMostly cloudy.12 mph63%30.29 "Hg15 mi
7:00 pm21 °FOvercast.9 mph58%30.32 "Hg15 mi
6:00 pm19 °FOvercast.3 mph73%30.34 "Hg15 mi
5:00 pm19 °FPartly sunny.5 mph58%30.36 "Hg15 mi
4:00 pm18 °FPartly sunny.5 mph62%30.37 "Hg15 mi
3:00 pm16 °FPartly sunny.2 mph62%30.39 "Hg15 mi
2:00 pm14 °FPartly sunny.3 mph73%30.40 "Hg15 mi
1:11 pm12 °FPartly sunny.6 mph73%30.41 "Hg15 mi
12:00 pm9 °FSnow flurries. Partly sunny.7 mph92%30.43 "Hg15 mi
11:32 am9 °FSnow flurries. Broken clouds.6 mph92%30.44 "Hg15 mi
11:21 am9 °FLight snow. Scattered clouds.7 mph85%30.44 "Hg15 mi
11:00 am9 °FLight snow. Partly sunny.7 mph85%30.43 "Hg3 mi
10:48 am9 °FLight snow. Fog.8 mph85%30.44 "Hg2 mi
10:00 am7 °FLight snow. Ice fog.9 mph92%30.44 "Hg1 mi
9:52 am9 °FLight snow. Ice fog.10 mph85%30.44 "Hg1 mi
9:42 am7 °FLight snow. Ice fog.10 mph92%30.44 "Hg1 mi
9:00 am7 °FLight snow. Low clouds.10 mph92%30.45 "Hg6 mi
8:00 am7 °FLight snow. Low clouds.10 mph92%30.44 "Hg15 mi
7:14 am7 °FLight snow. Low clouds.10 mph92%30.43 "Hg15 mi
7:00 am7 °FLow clouds.10 mph85%30.43 "Hg15 mi
6:44 am7 °FLow clouds.13 mph85%30.42 "Hg15 mi
5:00 am14 °FLight snow. Low clouds.12 mph92%30.39 "Hg15 mi
4:00 am12 °FLight snow. Low clouds.13 mph100%30.37 "Hg15 mi
Weather by CustomWeather, © 2017

See weather overviewHow to use our weather pages